User: anonymous   Login
Location: Newark
(36.6333°N, 138.1833°E)
Time: 09:07:31
(UTC+00:00)
Language:

POLYITAN 1 - Orbit

View from above orbital plane
View from above orbital plane
View from above satellite
View from above satellite

Ground track
Ground track

The orbit data is extracted from the following two-line orbital elements,

1 40042U 14033AJ  20157.75707046 +.00000233 +00000-0 +30848-4 0  9997
2 40042 097.9239 082.5886 0014044 334.2938 025.7579 14.88884025323251
Epoch (UTC): 05 June 2020 18:10:10
Eccentricity: 0.0014044
inclination: 97.9239°
perigee height: 591 km
apogee height: 611 km
right ascension of ascending node: 82.5886°
argument of perigee: 334.2938°
revolutions per day: 14.88884025
mean anomaly at epoch: 25.7579°
orbit number at epoch: 32325

The dashed part of the orbit path shows where the satellite is in the earth's shadow,  

DLR